Year,Month,Day,Hour,Minute,Value (Times are PST for temperature in C)
2013,07,17,00,00,23.00
2013,07,17,00,01,23.00
2013,07,17,00,02,23.00
2013,07,17,00,03,23.00
2013,07,17,00,04,22.90
2013,07,17,00,05,22.90
2013,07,17,00,06,22.90
2013,07,17,00,07,22.90
2013,07,17,00,08,23.00
2013,07,17,00,09,23.00
2013,07,17,00,10,23.00
2013,07,17,00,11,23.10
2013,07,17,00,12,23.10
2013,07,17,00,13,23.10
2013,07,17,00,14,23.10
2013,07,17,00,15,23.10
2013,07,17,00,16,23.10
2013,07,17,00,17,23.00
2013,07,17,00,18,23.00
2013,07,17,00,19,22.90
2013,07,17,00,20,22.90
2013,07,17,00,21,22.80
2013,07,17,00,22,22.80
2013,07,17,00,23,22.80
2013,07,17,00,24,22.80
2013,07,17,00,25,22.70
2013,07,17,00,26,22.70
2013,07,17,00,27,22.60
2013,07,17,00,28,22.60
2013,07,17,00,29,22.60
2013,07,17,00,30,22.60
2013,07,17,00,31,22.50
2013,07,17,00,32,22.50
2013,07,17,00,33,22.40
2013,07,17,00,34,22.40
2013,07,17,00,35,22.40
2013,07,17,00,36,22.30
2013,07,17,00,37,22.30
2013,07,17,00,38,22.30
2013,07,17,00,39,22.30
2013,07,17,00,40,22.40
2013,07,17,00,41,22.40
2013,07,17,00,42,22.40
2013,07,17,00,43,22.40
2013,07,17,00,44,22.50
2013,07,17,00,45,22.40
2013,07,17,00,46,22.40
2013,07,17,00,47,22.40
2013,07,17,00,48,22.40
2013,07,17,00,49,22.40
2013,07,17,00,50,22.40
2013,07,17,00,51,22.30
2013,07,17,00,52,22.30
2013,07,17,00,53,22.20
2013,07,17,00,54,22.20
2013,07,17,00,55,22.20
2013,07,17,00,56,22.30
2013,07,17,00,57,22.40
2013,07,17,00,58,22.40
2013,07,17,00,59,22.50
2013,07,17,01,00,22.50
2013,07,17,01,01,22.50
2013,07,17,01,02,22.60
2013,07,17,01,03,22.70
2013,07,17,01,04,22.80
2013,07,17,01,05,22.80
2013,07,17,01,06,22.90
2013,07,17,01,07,23.00
2013,07,17,01,08,23.00
2013,07,17,01,09,23.10
2013,07,17,01,10,23.10
2013,07,17,01,11,23.10
2013,07,17,01,12,23.20
2013,07,17,01,13,23.30
2013,07,17,01,14,23.30
2013,07,17,01,15,23.30
2013,07,17,01,16,23.30
2013,07,17,01,17,23.30
2013,07,17,01,18,23.40
2013,07,17,01,19,23.40
2013,07,17,01,20,23.50
2013,07,17,01,21,23.50
2013,07,17,01,22,23.50
2013,07,17,01,23,23.60
2013,07,17,01,24,23.60
2013,07,17,01,25,23.60
2013,07,17,01,26,23.60
2013,07,17,01,27,23.60
2013,07,17,01,28,23.60
2013,07,17,01,29,23.60
2013,07,17,01,30,23.60
2013,07,17,01,31,23.50
2013,07,17,01,32,23.50
2013,07,17,01,33,23.50
2013,07,17,01,34,23.40
2013,07,17,01,35,23.40
2013,07,17,01,36,23.30
2013,07,17,01,37,23.30
2013,07,17,01,38,23.20
2013,07,17,01,39,23.10
2013,07,17,01,40,23.10
2013,07,17,01,41,23.00
2013,07,17,01,42,23.00
2013,07,17,01,43,22.90
2013,07,17,01,44,22.80
2013,07,17,01,45,22.80
2013,07,17,01,46,22.80
2013,07,17,01,47,22.70
2013,07,17,01,48,22.70
2013,07,17,01,49,22.70
2013,07,17,01,50,22.60
2013,07,17,01,51,22.60
2013,07,17,01,52,22.60
2013,07,17,01,53,22.50
2013,07,17,01,54,22.40
2013,07,17,01,55,22.30
2013,07,17,01,56,22.30
2013,07,17,01,57,22.20
2013,07,17,01,58,22.10
2013,07,17,01,59,22.10
2013,07,17,02,00,22.00
2013,07,17,02,01,22.00
2013,07,17,02,02,21.90
2013,07,17,02,03,21.90
2013,07,17,02,04,21.80
2013,07,17,02,05,21.80
2013,07,17,02,06,21.80
2013,07,17,02,07,21.80
2013,07,17,02,08,21.80
2013,07,17,02,09,21.80
2013,07,17,02,10,21.80
2013,07,17,02,11,21.80
2013,07,17,02,12,21.80
2013,07,17,02,13,21.80
2013,07,17,02,14,21.80
2013,07,17,02,15,21.70
2013,07,17,02,16,21.60
2013,07,17,02,17,21.60
2013,07,17,02,18,21.50
2013,07,17,02,19,21.40
2013,07,17,02,20,21.40
2013,07,17,02,21,21.40
2013,07,17,02,22,21.40
2013,07,17,02,23,21.30
2013,07,17,02,24,21.30
2013,07,17,02,25,21.30
2013,07,17,02,26,21.20
2013,07,17,02,27,21.20
2013,07,17,02,28,21.10
2013,07,17,02,29,21.00
2013,07,17,02,30,21.00
2013,07,17,02,31,20.90
2013,07,17,02,32,20.80
2013,07,17,02,33,20.80
2013,07,17,02,34,20.70
2013,07,17,02,35,20.70
2013,07,17,02,36,20.70
2013,07,17,02,37,20.80
2013,07,17,02,38,20.90
2013,07,17,02,39,21.00
2013,07,17,02,40,21.20
2013,07,17,02,41,21.30
2013,07,17,02,42,21.50
2013,07,17,02,43,21.70
2013,07,17,02,44,21.80
2013,07,17,02,45,21.80
2013,07,17,02,46,21.80
2013,07,17,02,47,21.80
2013,07,17,02,48,21.80
2013,07,17,02,49,21.80
2013,07,17,02,50,21.80
2013,07,17,02,51,21.80
2013,07,17,02,52,21.70
2013,07,17,02,53,21.70
2013,07,17,02,54,21.60
2013,07,17,02,55,21.60
2013,07,17,02,56,21.60
2013,07,17,02,57,21.60
2013,07,17,02,58,21.60
2013,07,17,02,59,21.60
2013,07,17,03,00,21.50
2013,07,17,03,01,21.40
2013,07,17,03,02,21.30
2013,07,17,03,03,21.30
2013,07,17,03,04,21.20
2013,07,17,03,05,21.10
2013,07,17,03,06,21.00
2013,07,17,03,07,20.90
2013,07,17,03,08,20.90
2013,07,17,03,09,20.80
2013,07,17,03,10,20.80
2013,07,17,03,11,20.80
2013,07,17,03,12,20.80
2013,07,17,03,13,20.80
2013,07,17,03,14,20.80
2013,07,17,03,15,20.80
2013,07,17,03,16,20.80
2013,07,17,03,17,20.80
2013,07,17,03,18,20.70
2013,07,17,03,19,20.70
2013,07,17,03,20,20.70
2013,07,17,03,21,20.60
2013,07,17,03,22,20.60
2013,07,17,03,23,20.50
2013,07,17,03,24,20.50
2013,07,17,03,25,20.40
2013,07,17,03,26,20.40
2013,07,17,03,27,20.30
2013,07,17,03,28,20.30
2013,07,17,03,29,20.30
2013,07,17,03,30,20.30
2013,07,17,03,31,20.20
2013,07,17,03,32,20.20
2013,07,17,03,33,20.20
2013,07,17,03,34,20.20
2013,07,17,03,35,20.20
2013,07,17,03,36,20.20
2013,07,17,03,37,20.10
2013,07,17,03,38,20.10
2013,07,17,03,39,20.10
2013,07,17,03,40,20.00
2013,07,17,03,41,20.00
2013,07,17,03,42,19.90
2013,07,17,03,43,19.90
2013,07,17,03,44,19.90
2013,07,17,03,45,19.90
2013,07,17,03,46,19.90
2013,07,17,03,47,19.80
2013,07,17,03,48,19.80
2013,07,17,03,49,19.80
2013,07,17,03,50,19.80
2013,07,17,03,51,19.80
2013,07,17,03,52,19.80
2013,07,17,03,53,19.80
2013,07,17,03,54,19.70
2013,07,17,03,55,19.70
2013,07,17,03,56,19.70
2013,07,17,03,57,19.70
2013,07,17,03,58,19.70
2013,07,17,03,59,19.60
2013,07,17,04,00,19.60
2013,07,17,04,01,19.60
2013,07,17,04,02,19.60
2013,07,17,04,03,19.60
2013,07,17,04,04,19.60
2013,07,17,04,05,19.60
2013,07,17,04,06,19.60
2013,07,17,04,07,19.60
2013,07,17,04,08,19.60
2013,07,17,04,09,19.60
2013,07,17,04,10,19.60
2013,07,17,04,11,19.60
2013,07,17,04,12,19.60
2013,07,17,04,13,19.60
2013,07,17,04,14,19.60
2013,07,17,04,15,19.60
2013,07,17,04,16,19.60
2013,07,17,04,17,19.60
2013,07,17,04,18,19.60
2013,07,17,04,19,19.60
2013,07,17,04,20,19.60
2013,07,17,04,21,19.50
2013,07,17,04,22,19.50
2013,07,17,04,23,19.50
2013,07,17,04,24,19.40
2013,07,17,04,25,19.40
2013,07,17,04,26,19.40
2013,07,17,04,27,19.30
2013,07,17,04,28,19.30
2013,07,17,04,29,19.30
2013,07,17,04,30,19.30
2013,07,17,04,31,19.20
2013,07,17,04,32,19.20
2013,07,17,04,33,19.30
2013,07,17,04,34,19.30
2013,07,17,04,35,19.30
2013,07,17,04,36,19.30
2013,07,17,04,37,19.40
2013,07,17,04,38,19.40
2013,07,17,04,39,19.50
2013,07,17,04,40,19.50
2013,07,17,04,41,19.60
2013,07,17,04,42,19.60
2013,07,17,04,43,19.60
2013,07,17,04,44,19.50
2013,07,17,04,45,19.50
2013,07,17,04,46,19.40
2013,07,17,04,47,19.40
2013,07,17,04,48,19.40
2013,07,17,04,49,19.40
2013,07,17,04,50,19.50
2013,07,17,04,51,19.50
2013,07,17,04,52,19.70
2013,07,17,04,53,19.80
2013,07,17,04,54,19.90
2013,07,17,04,55,20.00
2013,07,17,04,56,20.00
2013,07,17,04,57,20.10
2013,07,17,04,58,20.20
2013,07,17,04,59,20.20
2013,07,17,05,00,20.20
2013,07,17,05,01,20.20
2013,07,17,05,02,20.20
2013,07,17,05,03,20.20
2013,07,17,05,04,20.10
2013,07,17,05,05,20.10
2013,07,17,05,06,20.10
2013,07,17,05,07,20.10
2013,07,17,05,08,20.10
2013,07,17,05,09,20.00
2013,07,17,05,10,20.00
2013,07,17,05,11,20.00
2013,07,17,05,12,19.90
2013,07,17,05,13,19.90
2013,07,17,05,14,19.90
2013,07,17,05,15,20.00
2013,07,17,05,16,20.00
2013,07,17,05,17,20.00
2013,07,17,05,18,20.00
2013,07,17,05,19,20.00
2013,07,17,05,20,19.90
2013,07,17,05,21,19.90
2013,07,17,05,22,19.90
2013,07,17,05,23,19.90
2013,07,17,05,24,19.90
2013,07,17,05,25,19.90
2013,07,17,05,26,19.90
2013,07,17,05,27,19.90
2013,07,17,05,28,19.90
2013,07,17,05,29,19.90
2013,07,17,05,30,19.90
2013,07,17,05,31,19.90
2013,07,17,05,32,19.80
2013,07,17,05,33,19.80
2013,07,17,05,34,19.70
2013,07,17,05,35,19.70
2013,07,17,05,36,19.60
2013,07,17,05,37,19.60
2013,07,17,05,38,19.60
2013,07,17,05,39,19.50
2013,07,17,05,40,19.50
2013,07,17,05,41,19.40
2013,07,17,05,42,19.40
2013,07,17,05,43,19.40
2013,07,17,05,44,19.40
2013,07,17,05,45,19.30
2013,07,17,05,46,19.30
2013,07,17,05,47,19.30
2013,07,17,05,48,19.20
2013,07,17,05,49,19.20
2013,07,17,05,50,19.10
2013,07,17,05,51,19.10
2013,07,17,05,52,19.10
2013,07,17,05,53,19.00
2013,07,17,05,54,19.00
2013,07,17,05,55,19.00
2013,07,17,05,56,18.90
2013,07,17,05,57,19.00
2013,07,17,05,58,19.00
2013,07,17,05,59,18.90
2013,07,17,06,00,18.90
2013,07,17,06,01,18.90
2013,07,17,06,02,18.90
2013,07,17,06,03,18.80
2013,07,17,06,04,18.70
2013,07,17,06,05,18.70
2013,07,17,06,06,18.60
2013,07,17,06,07,18.60
2013,07,17,06,08,18.50
2013,07,17,06,09,18.50
2013,07,17,06,10,18.40
2013,07,17,06,11,18.50
2013,07,17,06,12,18.50
2013,07,17,06,13,18.60
2013,07,17,06,14,18.60
2013,07,17,06,15,18.70
2013,07,17,06,16,18.70
2013,07,17,06,17,18.80
2013,07,17,06,18,18.90
2013,07,17,06,19,19.00
2013,07,17,06,20,19.10
2013,07,17,06,21,19.30
2013,07,17,06,22,19.40
2013,07,17,06,23,19.40
2013,07,17,06,24,19.50
2013,07,17,06,25,19.50
2013,07,17,06,26,19.50
2013,07,17,06,27,19.60
2013,07,17,06,28,19.60
2013,07,17,06,29,19.60
2013,07,17,06,30,19.60
2013,07,17,06,31,19.60
2013,07,17,06,32,19.60
2013,07,17,06,33,19.50
2013,07,17,06,34,19.50
2013,07,17,06,35,19.40
2013,07,17,06,36,19.30
2013,07,17,06,37,19.30
2013,07,17,06,38,19.20
2013,07,17,06,39,19.20
2013,07,17,06,40,19.20
2013,07,17,06,41,19.10
2013,07,17,06,42,19.10
2013,07,17,06,43,19.00
2013,07,17,06,44,19.00
2013,07,17,06,45,18.90
2013,07,17,06,46,18.90
2013,07,17,06,47,18.90
2013,07,17,06,48,18.80
2013,07,17,06,49,18.80
2013,07,17,06,50,18.70
2013,07,17,06,51,18.70
2013,07,17,06,52,18.70
2013,07,17,06,53,18.70
2013,07,17,06,54,18.60
2013,07,17,06,55,18.60
2013,07,17,06,56,18.60
2013,07,17,06,57,18.50
2013,07,17,06,58,18.50
2013,07,17,06,59,18.50
2013,07,17,07,00,18.40
2013,07,17,07,01,18.40
2013,07,17,07,02,18.40
2013,07,17,07,03,18.40
2013,07,17,07,04,18.30
2013,07,17,07,05,18.40
2013,07,17,07,06,18.40
2013,07,17,07,07,18.40
2013,07,17,07,08,18.50
2013,07,17,07,09,18.50
2013,07,17,07,10,18.50
2013,07,17,07,11,18.60
2013,07,17,07,12,18.60
2013,07,17,07,13,18.60
2013,07,17,07,14,18.60
2013,07,17,07,15,18.60
2013,07,17,07,16,18.60
2013,07,17,07,17,18.60
2013,07,17,07,18,18.60
2013,07,17,07,19,18.60
2013,07,17,07,20,18.60
2013,07,17,07,21,18.60
2013,07,17,07,22,18.60
2013,07,17,07,23,18.60
2013,07,17,07,24,18.60
2013,07,17,07,25,18.60
2013,07,17,07,26,18.60
2013,07,17,07,27,18.60
2013,07,17,07,28,18.60
2013,07,17,07,29,18.60
2013,07,17,07,30,18.60
2013,07,17,07,31,18.60
2013,07,17,07,32,18.60
2013,07,17,07,33,18.60
2013,07,17,07,34,18.70
2013,07,17,07,35,18.70
2013,07,17,07,36,18.70
2013,07,17,07,37,18.70
2013,07,17,07,38,18.70
2013,07,17,07,39,18.70
2013,07,17,07,40,18.70
2013,07,17,07,41,18.70
2013,07,17,07,42,18.80
2013,07,17,07,43,18.80
2013,07,17,07,44,18.80
2013,07,17,07,45,18.80
2013,07,17,07,46,18.80
2013,07,17,07,47,18.90
2013,07,17,07,48,18.90
2013,07,17,07,49,18.90
2013,07,17,07,50,18.90
2013,07,17,07,51,18.90
2013,07,17,07,52,18.90
2013,07,17,07,53,18.90
2013,07,17,07,54,18.90
2013,07,17,07,55,18.90
2013,07,17,07,56,18.90
2013,07,17,07,57,18.90
2013,07,17,07,58,18.90
2013,07,17,07,59,18.90
2013,07,17,08,00,18.90
2013,07,17,08,01,18.90
2013,07,17,08,02,18.90
2013,07,17,08,03,18.90
2013,07,17,08,04,18.90
2013,07,17,08,05,18.90
2013,07,17,08,06,18.90
2013,07,17,08,07,18.90
2013,07,17,08,08,18.90
2013,07,17,08,09,18.90
2013,07,17,08,10,18.90
2013,07,17,08,11,18.90
2013,07,17,08,12,18.90
2013,07,17,08,13,19.00
2013,07,17,08,14,19.00
2013,07,17,08,15,19.00
2013,07,17,08,16,19.00
2013,07,17,08,17,19.00
2013,07,17,08,18,18.90
2013,07,17,08,19,18.90
2013,07,17,08,20,18.80
2013,07,17,08,21,18.80
2013,07,17,08,22,18.80
2013,07,17,08,23,18.70
2013,07,17,08,24,18.60
2013,07,17,08,25,18.50
2013,07,17,08,26,18.40
2013,07,17,08,27,18.40
2013,07,17,08,28,18.40
2013,07,17,08,29,18.30
2013,07,17,08,30,18.20
2013,07,17,08,31,18.20
2013,07,17,08,32,18.10
2013,07,17,08,33,18.00
2013,07,17,08,34,18.00
2013,07,17,08,35,18.00
2013,07,17,08,36,17.90
2013,07,17,08,37,17.90
2013,07,17,08,38,17.90
2013,07,17,08,39,17.90
2013,07,17,08,40,17.90
2013,07,17,08,41,17.90
2013,07,17,08,42,18.00
2013,07,17,08,43,18.00
2013,07,17,08,44,18.00
2013,07,17,08,45,18.00
2013,07,17,08,46,18.10
2013,07,17,08,47,18.10
2013,07,17,08,48,18.10
2013,07,17,08,49,18.20
2013,07,17,08,50,18.30
2013,07,17,08,51,18.40
2013,07,17,08,52,18.50
2013,07,17,08,53,18.60
2013,07,17,08,54,18.70
2013,07,17,08,55,18.70
2013,07,17,08,56,18.80
2013,07,17,08,57,18.90
2013,07,17,08,58,19.00
2013,07,17,08,59,19.10
2013,07,17,09,00,19.10
2013,07,17,09,01,19.20
2013,07,17,09,02,19.20
2013,07,17,09,03,19.30
2013,07,17,09,04,19.30
2013,07,17,09,05,19.40
2013,07,17,09,06,19.50
2013,07,17,09,07,19.60
2013,07,17,09,08,19.60
2013,07,17,09,09,19.70
2013,07,17,09,10,19.70
2013,07,17,09,11,19.70
2013,07,17,09,12,19.70
2013,07,17,09,13,19.70
2013,07,17,09,14,19.70
2013,07,17,09,15,19.70
2013,07,17,09,16,19.70
2013,07,17,09,17,19.70
2013,07,17,09,18,19.70
2013,07,17,09,19,19.80
2013,07,17,09,20,19.80
2013,07,17,09,21,19.90
2013,07,17,09,22,19.90
2013,07,17,09,23,20.00
2013,07,17,09,24,20.00
2013,07,17,09,25,20.00
2013,07,17,09,26,20.00
2013,07,17,09,27,20.10
2013,07,17,09,28,20.20
2013,07,17,09,29,20.30
2013,07,17,09,30,20.40
2013,07,17,09,31,20.60
2013,07,17,09,32,20.60
2013,07,17,09,33,20.70
2013,07,17,09,34,20.70
2013,07,17,09,35,20.60
2013,07,17,09,36,20.60
2013,07,17,09,37,20.50
2013,07,17,09,38,20.40
2013,07,17,09,39,20.30
2013,07,17,09,40,20.20
2013,07,17,09,41,20.10
2013,07,17,09,42,20.00
2013,07,17,09,43,19.90
2013,07,17,09,44,19.80
2013,07,17,09,45,19.70
2013,07,17,09,46,19.70
2013,07,17,09,47,19.60
2013,07,17,09,48,19.60
2013,07,17,09,49,19.60
2013,07,17,09,50,19.60
2013,07,17,09,51,19.50
2013,07,17,09,52,19.50
2013,07,17,09,53,19.50
2013,07,17,09,54,19.50
2013,07,17,09,55,19.60
2013,07,17,09,56,19.60
2013,07,17,09,57,19.70
2013,07,17,09,58,19.80
2013,07,17,09,59,19.90
2013,07,17,10,00,19.90
2013,07,17,10,01,20.00
2013,07,17,10,02,20.10
2013,07,17,10,03,20.20
2013,07,17,10,04,20.30
2013,07,17,10,05,20.30
2013,07,17,10,06,20.30
2013,07,17,10,07,20.30
2013,07,17,10,08,20.30
2013,07,17,10,09,20.40
2013,07,17,10,10,20.40
2013,07,17,10,11,20.40
2013,07,17,10,12,20.40
2013,07,17,10,13,20.40
2013,07,17,10,14,20.40
2013,07,17,10,15,20.40
2013,07,17,10,16,20.40
2013,07,17,10,17,20.50
2013,07,17,10,18,20.50
2013,07,17,10,19,20.60
2013,07,17,10,20,20.60
2013,07,17,10,21,20.70
2013,07,17,10,22,20.80
2013,07,17,10,23,20.80
2013,07,17,10,24,20.80
2013,07,17,10,25,20.90
2013,07,17,10,26,21.00
2013,07,17,10,27,21.10
2013,07,17,10,28,21.20
2013,07,17,10,29,21.20
2013,07,17,10,30,21.20
2013,07,17,10,31,21.30
2013,07,17,10,32,21.30
2013,07,17,10,33,21.30
2013,07,17,10,34,21.40
2013,07,17,10,35,21.40
2013,07,17,10,36,21.50
2013,07,17,10,37,21.60
2013,07,17,10,38,21.50
2013,07,17,10,39,21.50
2013,07,17,10,40,21.50
2013,07,17,10,41,21.50
2013,07,17,10,42,21.50
2013,07,17,10,43,21.50
2013,07,17,10,44,21.40
2013,07,17,10,45,21.30
2013,07,17,10,46,21.20
2013,07,17,10,47,21.10
2013,07,17,10,48,20.90
2013,07,17,10,49,20.80
2013,07,17,10,50,20.80
2013,07,17,10,51,20.80
2013,07,17,10,52,20.70
2013,07,17,10,53,20.60
2013,07,17,10,54,20.60
2013,07,17,10,55,20.50
2013,07,17,10,56,20.50
2013,07,17,10,57,20.50
2013,07,17,10,58,20.60
2013,07,17,10,59,20.50
2013,07,17,11,00,20.50
2013,07,17,11,01,20.50
2013,07,17,11,02,20.50
2013,07,17,11,03,20.60
2013,07,17,11,04,20.60
2013,07,17,11,05,20.70
2013,07,17,11,06,20.70
2013,07,17,11,07,20.70
2013,07,17,11,08,20.60
2013,07,17,11,09,20.50
2013,07,17,11,10,20.40
2013,07,17,11,11,20.40
2013,07,17,11,12,20.30
2013,07,17,11,13,20.20
2013,07,17,11,14,20.00
2013,07,17,11,15,19.90
2013,07,17,11,16,19.70
2013,07,17,11,17,19.60
2013,07,17,11,18,19.60
2013,07,17,11,19,19.60
2013,07,17,11,20,19.60
2013,07,17,11,21,19.70
2013,07,17,11,22,19.70
2013,07,17,11,23,19.60
2013,07,17,11,24,19.70
2013,07,17,11,25,19.80
2013,07,17,11,26,19.80
2013,07,17,11,27,19.90
2013,07,17,11,28,19.90
2013,07,17,11,29,20.00
2013,07,17,11,30,20.10
2013,07,17,11,31,20.10
2013,07,17,11,32,20.10
2013,07,17,11,33,20.10
2013,07,17,11,34,20.10
2013,07,17,11,35,20.20
2013,07,17,11,36,20.20
2013,07,17,11,37,20.30
2013,07,17,11,38,20.30
2013,07,17,11,39,20.40
2013,07,17,11,40,20.40
2013,07,17,11,41,20.40
2013,07,17,11,42,20.40
2013,07,17,11,43,20.40
2013,07,17,11,44,20.40
2013,07,17,11,45,20.30
2013,07,17,11,46,20.30
2013,07,17,11,47,20.20
2013,07,17,11,48,20.20
2013,07,17,11,49,20.20
2013,07,17,11,50,20.20
2013,07,17,11,51,20.30
2013,07,17,11,52,20.20
2013,07,17,11,53,20.20
2013,07,17,11,54,20.30
2013,07,17,11,55,20.50
2013,07,17,11,56,20.50
2013,07,17,11,57,20.40
2013,07,17,11,58,20.30
2013,07,17,11,59,20.30
2013,07,17,12,00,20.30
2013,07,17,12,01,20.30
2013,07,17,12,02,20.40
2013,07,17,12,03,20.50
2013,07,17,12,04,20.60
2013,07,17,12,05,20.70
2013,07,17,12,06,20.70
2013,07,17,12,07,20.70
2013,07,17,12,08,20.80
2013,07,17,12,09,20.70
2013,07,17,12,10,20.60
2013,07,17,12,11,20.60
2013,07,17,12,12,20.60
2013,07,17,12,13,20.60
2013,07,17,12,14,20.70
2013,07,17,12,15,20.70
2013,07,17,12,16,20.70
2013,07,17,12,17,20.80
2013,07,17,12,18,20.90
2013,07,17,12,19,21.00
2013,07,17,12,20,21.10
2013,07,17,12,21,21.20
2013,07,17,12,22,21.30
2013,07,17,12,23,21.40
2013,07,17,12,24,21.40
2013,07,17,12,25,21.50
2013,07,17,12,26,21.50
2013,07,17,12,27,21.50
2013,07,17,12,28,21.60
2013,07,17,12,29,21.60
2013,07,17,12,30,21.50
2013,07,17,12,31,21.30
2013,07,17,12,32,21.30
2013,07,17,12,33,21.30
2013,07,17,12,34,21.40
2013,07,17,12,35,21.40
2013,07,17,12,36,21.40
2013,07,17,12,37,21.30
2013,07,17,12,38,21.30
2013,07,17,12,39,21.20
2013,07,17,12,40,21.20
2013,07,17,12,41,21.20
2013,07,17,12,42,21.20
2013,07,17,12,43,21.30
2013,07,17,12,44,21.40
2013,07,17,12,45,21.50
2013,07,17,12,46,21.60
2013,07,17,12,47,21.60
2013,07,17,12,48,21.60
2013,07,17,12,49,21.50
2013,07,17,12,50,21.40
2013,07,17,12,51,21.40
2013,07,17,12,52,21.30
2013,07,17,12,53,21.30
2013,07,17,12,54,21.30
2013,07,17,12,55,21.20
2013,07,17,12,56,21.30
2013,07,17,12,57,21.30
2013,07,17,12,58,21.40
2013,07,17,12,59,21.40
2013,07,17,13,00,21.40
2013,07,17,13,01,21.40
2013,07,17,13,02,21.40
2013,07,17,13,03,21.40
2013,07,17,13,04,21.40
2013,07,17,13,05,21.30
2013,07,17,13,06,21.30
2013,07,17,13,07,21.30
2013,07,17,13,08,21.40
2013,07,17,13,09,21.50
2013,07,17,13,10,21.60
2013,07,17,13,11,21.60
2013,07,17,13,12,21.70
2013,07,17,13,13,21.60
2013,07,17,13,14,21.60
2013,07,17,13,15,21.60
2013,07,17,13,16,21.60
2013,07,17,13,17,21.60
2013,07,17,13,18,21.50
2013,07,17,13,19,21.50
2013,07,17,13,20,21.50
2013,07,17,13,21,21.50
2013,07,17,13,22,21.60
2013,07,17,13,23,21.70
2013,07,17,13,24,21.80
2013,07,17,13,25,21.80
2013,07,17,13,26,21.90
2013,07,17,13,27,21.90
2013,07,17,13,28,21.90
2013,07,17,13,29,21.90
2013,07,17,13,30,21.90
2013,07,17,13,31,21.80
2013,07,17,13,32,21.80
2013,07,17,13,33,21.90
2013,07,17,13,34,22.00
2013,07,17,13,35,22.00
2013,07,17,13,36,22.00
2013,07,17,13,37,21.90
2013,07,17,13,38,21.90
2013,07,17,13,39,21.90
2013,07,17,13,40,21.90
2013,07,17,13,41,21.90
2013,07,17,13,42,21.90
2013,07,17,13,43,21.90
2013,07,17,13,44,21.90
2013,07,17,13,45,22.00
2013,07,17,13,46,22.10
2013,07,17,13,47,22.20
2013,07,17,13,48,22.30
2013,07,17,13,49,22.40
2013,07,17,13,50,22.40
2013,07,17,13,51,22.40
2013,07,17,13,52,22.40
2013,07,17,13,53,22.30
2013,07,17,13,54,22.20
2013,07,17,13,55,22.20
2013,07,17,13,56,22.20
2013,07,17,13,57,22.20
2013,07,17,13,58,22.30
2013,07,17,13,59,22.30
2013,07,17,14,00,22.30
2013,07,17,14,01,22.50
2013,07,17,14,02,22.50
2013,07,17,14,03,22.60
2013,07,17,14,04,22.50
2013,07,17,14,05,22.40
2013,07,17,14,06,22.40
2013,07,17,14,07,22.30
2013,07,17,14,08,22.20
2013,07,17,14,09,22.10
2013,07,17,14,10,22.20
2013,07,17,14,11,22.20
2013,07,17,14,12,22.20
2013,07,17,14,13,22.20
2013,07,17,14,14,22.20
2013,07,17,14,15,22.20
2013,07,17,14,16,22.20
2013,07,17,14,17,22.10
2013,07,17,14,18,22.10
2013,07,17,14,19,22.10
2013,07,17,14,20,22.10
2013,07,17,14,21,22.10
2013,07,17,14,22,22.20
2013,07,17,14,23,22.30
2013,07,17,14,24,22.40
2013,07,17,14,25,22.50
2013,07,17,14,26,22.50
2013,07,17,14,27,22.40
2013,07,17,14,28,22.30
2013,07,17,14,29,22.20
2013,07,17,14,30,22.10
2013,07,17,14,31,22.20
2013,07,17,14,32,22.20
2013,07,17,14,33,22.30
2013,07,17,14,34,22.40
2013,07,17,14,35,22.50
2013,07,17,14,36,22.40
2013,07,17,14,37,22.30
2013,07,17,14,38,22.30
2013,07,17,14,39,22.30
2013,07,17,14,40,22.30
2013,07,17,14,41,22.30
2013,07,17,14,42,22.30
2013,07,17,14,43,22.40
2013,07,17,14,44,22.40
2013,07,17,14,45,22.50
2013,07,17,14,46,22.60
2013,07,17,14,47,22.60
2013,07,17,14,48,22.50
2013,07,17,14,49,22.40
2013,07,17,14,50,22.30
2013,07,17,14,51,22.30
2013,07,17,14,52,22.40
2013,07,17,14,53,22.50
2013,07,17,14,54,22.60
2013,07,17,14,55,22.80
2013,07,17,14,56,22.90
2013,07,17,14,57,23.00
2013,07,17,14,58,23.00
2013,07,17,14,59,23.10
2013,07,17,15,00,23.00
2013,07,17,15,01,23.00
2013,07,17,15,02,23.10
2013,07,17,15,03,23.20
2013,07,17,15,04,23.20
2013,07,17,15,05,23.10
2013,07,17,15,06,23.10
2013,07,17,15,07,23.20
2013,07,17,15,08,23.20
2013,07,17,15,09,23.30
2013,07,17,15,10,23.30
2013,07,17,15,11,23.30
2013,07,17,15,12,23.30
2013,07,17,15,13,23.30
2013,07,17,15,14,23.30
2013,07,17,15,15,23.30
2013,07,17,15,16,23.30
2013,07,17,15,17,23.40
2013,07,17,15,18,23.40
2013,07,17,15,19,23.40
2013,07,17,15,20,23.20
2013,07,17,15,21,23.10
2013,07,17,15,22,23.00
2013,07,17,15,23,23.00
2013,07,17,15,24,22.90
2013,07,17,15,25,23.00
2013,07,17,15,26,23.10
2013,07,17,15,27,23.10
2013,07,17,15,28,23.00
2013,07,17,15,29,23.00
2013,07,17,15,30,22.90
2013,07,17,15,31,22.90
2013,07,17,15,32,22.90
2013,07,17,15,33,22.90
2013,07,17,15,34,22.90
2013,07,17,15,35,23.00
2013,07,17,15,36,23.00
2013,07,17,15,37,23.10
2013,07,17,15,38,23.00
2013,07,17,15,39,23.00
2013,07,17,15,40,23.00
2013,07,17,15,41,23.00
2013,07,17,15,42,23.10
2013,07,17,15,43,23.20
2013,07,17,15,44,23.30
2013,07,17,15,45,23.30
2013,07,17,15,46,23.20
2013,07,17,15,47,23.30
2013,07,17,15,48,23.30
2013,07,17,15,49,23.30
2013,07,17,15,50,23.30
2013,07,17,15,51,23.30
2013,07,17,15,52,23.20
2013,07,17,15,53,23.10
2013,07,17,15,54,23.00
2013,07,17,15,55,22.90
2013,07,17,15,56,22.90
2013,07,17,15,57,23.00
2013,07,17,15,58,23.00
2013,07,17,15,59,23.00
2013,07,17,16,00,23.10
2013,07,17,16,01,23.10
2013,07,17,16,02,23.00
2013,07,17,16,03,23.00
2013,07,17,16,04,22.90
2013,07,17,16,05,22.80
2013,07,17,16,06,22.80
2013,07,17,16,07,22.90
2013,07,17,16,08,22.90
2013,07,17,16,09,22.90
2013,07,17,16,10,22.80
2013,07,17,16,11,22.80
2013,07,17,16,12,22.80
2013,07,17,16,13,22.80
2013,07,17,16,14,22.90
2013,07,17,16,15,22.90
2013,07,17,16,16,22.90
2013,07,17,16,17,22.90
2013,07,17,16,18,22.80
2013,07,17,16,19,22.70
2013,07,17,16,20,22.70
2013,07,17,16,21,22.70
2013,07,17,16,22,22.80
2013,07,17,16,23,22.80
2013,07,17,16,24,22.90
2013,07,17,16,25,22.90
2013,07,17,16,26,22.90
2013,07,17,16,27,22.80
2013,07,17,16,28,22.80
2013,07,17,16,29,22.80
2013,07,17,16,30,22.70
2013,07,17,16,31,22.70
2013,07,17,16,32,22.80
2013,07,17,16,33,22.80
2013,07,17,16,34,22.60
2013,07,17,16,35,22.50
2013,07,17,16,36,22.50
2013,07,17,16,37,22.60
2013,07,17,16,38,22.60
2013,07,17,16,39,22.70
2013,07,17,16,40,22.70
2013,07,17,16,41,22.80
2013,07,17,16,42,22.80
2013,07,17,16,43,22.80
2013,07,17,16,44,22.80
2013,07,17,16,45,22.80
2013,07,17,16,46,22.80
2013,07,17,16,47,22.80
2013,07,17,16,48,22.80
2013,07,17,16,49,22.80
2013,07,17,16,50,22.70
2013,07,17,16,51,22.60
2013,07,17,16,52,22.50
2013,07,17,16,53,22.40
2013,07,17,16,54,22.40
2013,07,17,16,55,22.30
2013,07,17,16,56,22.40
2013,07,17,16,57,22.40
2013,07,17,16,58,22.50
2013,07,17,16,59,22.50
2013,07,17,17,00,22.50
2013,07,17,17,01,22.50
2013,07,17,17,02,22.50
2013,07,17,17,03,22.50
2013,07,17,17,04,22.50
2013,07,17,17,05,22.50
2013,07,17,17,06,22.50
2013,07,17,17,07,22.50
2013,07,17,17,08,22.50
2013,07,17,17,09,22.60
2013,07,17,17,10,22.60
2013,07,17,17,11,22.60
2013,07,17,17,12,22.60
2013,07,17,17,13,22.70
2013,07,17,17,14,22.70
2013,07,17,17,15,22.70
2013,07,17,17,16,22.70
2013,07,17,17,17,22.70
2013,07,17,17,18,22.80
2013,07,17,17,19,22.90